Location: LDNL
(36.4545°S, 141.6685°E)
Time: 04:38:36
(UTC+11:00)

Vanguard 2 - Pass Details

Date: 15 August 2022
Orbit: 552 x 2934 km, 32.9° (Epoch: 06 October)

Event Time Altitude Azimuth Distance (km) Brightness Sun altitude
Rises 13:31:46 0° 339° (NNW) 6,341 13.1 37.9°
Reaches altitude 10° 13:36:50 10° 350° (N) 5,554 13.2 37.6°
Maximum altitude 13:49:59 27° 39° (NE) 4,470 12.0 36.7°
Drops below altitude 10° 14:02:42 10° 88° (E) 5,418 11.7 35.7°
Sets 14:07:28 0° 99° (E) 6,172 11.9 35.2°
